Surface/Precipitation History
01/20/2017 22:56  to  1/21/2017 22:56
Change End Date:
Date/Time
(MST)
Sf
Temp Chem Water Layer Surface Precipitation
Sfc Pvt Sub Frz Factor Pct Dpth DpthThk IcePct Cond Salin FI Type Intens Accum Rate
01/21/2017 22:46 Ice Warning 23.2F - 26F 32F 95 1% - - 96% 3 mhos 373 - None None - -
01/21/2017 22:36 Ice Warning 23.0F - 26F 32F 95 1% - - 96% 3 mhos 374 - None None - -
01/21/2017 22:31 Ice Warning 22.8F - 26F 32F 95 1% - - 96% 3 mhos 374 - None None - -
01/21/2017 22:26 Ice Warning 22.6F - 26F 32F 95 1% - - 98% 2 mhos 230 - None None - -
01/21/2017 22:16 Ice Warning 22.5F - 26F 32F 95 1% - - 98% 2 mhos 231 - None None - -
01/21/2017 22:16 Ice Warning 22.5F - 26F 32F 95 1% - - 98% 2 mhos 231 - None None - -
01/21/2017 22:06 Ice Warning 21.9F - 26F 32F 95 1% - - 98% 2 mhos 233 - None None - -
01/21/2017 22:01 Ice Warning 21.7F - 26F 32F 95 1% - - 98% 2 mhos 231 - None None - -
01/21/2017 21:56 Ice Warning 21.7F - 26F 32F 95 1% - - 98% 2 mhos 231 - None None - -
01/21/2017 21:46 Ice Warning 21.9F - 26F 32F 95 1% - - 98% 2 mhos 233 - None None - -
01/21/2017 21:46 Ice Warning 21.9F - 26F 32F 95 1% - - 98% 2 mhos 233 - None None - -
01/21/2017 21:36 Ice Warning 22.5F - 26F 32F 95 1% - - 96% 3 mhos 378 - None None - -
01/21/2017 21:31 Ice Warning 22.8F - 26F 32F 95 1% - - 96% 3 mhos 378 - None None - -
01/21/2017 21:26 Ice Warning 23.2F - 26F 32F 95 1% - - 96% 3 mhos 378 - None None - -
01/21/2017 21:16 Ice Warning 23.5F - 26F 32F 95 1% - - 96% 3 mhos 378 - None None - -
Date/Time
(MST)
Sf
Temp Chem Water Layer Surface Precipitation
Sfc Pvt Sub Frz Factor Pct Dpth DpthThk IcePct Cond Salin FI Type Intens Accum Rate
01/21/2017 21:16 Ice Warning 23.5F - 26F 32F 95 1% - - 96% 3 mhos 378 - None None - -
01/21/2017 21:06 Ice Warning 24.8F - 26F 32F 95 1% - - 95% 3 mhos 377 - None None - -
01/21/2017 21:01 Ice Warning 25.3F - 26F 32F 95 1% - - 95% 3 mhos 377 - None None - -
01/21/2017 20:56 Ice Warning 25.3F - 26F 32F 95 1% - - 94% 3 mhos 378 - None None - -
01/21/2017 20:46 Ice Warning 25.5F - 26F 32F 95 1% - - 94% 3 mhos 378 - None None - -
01/21/2017 20:45 Ice Warning 25.5F - 26F 32F 95 1% - - 94% 3 mhos 378 - None None - -
01/21/2017 20:35 Ice Warning 25.5F - 26F 32F 95 1% - - 94% 3 mhos 379 - None None - -
01/21/2017 20:31 Ice Warning 25.5F - 26F 32F 95 1% - - 94% 3 mhos 381 - None None - -
01/21/2017 20:25 Ice Warning 25.7F - 26F 32F 95 1% - - 94% 3 mhos 380 - None None - -
01/21/2017 20:16 Ice Warning 25.7F - 26F 32F 95 1% - - 94% 3 mhos 383 - None None - -
01/21/2017 20:15 Ice Warning 25.7F - 26F 32F 95 1% - - 94% 3 mhos 383 - None None - -
01/21/2017 20:05 Ice Warning 25.7F - 26F 32F 95 1% - - 94% 3 mhos 386 - None None - -
01/21/2017 20:01 Ice Warning 25.7F - 26F 32F 95 1% - - 94% 3 mhos 387 - None None - -
01/21/2017 19:55 Ice Warning 25.7F - 26F 32F 95 1% - - 94% 3 mhos 388 - None None - -
01/21/2017 19:46 Ice Warning 25.7F - 26F 32F 95 1% - - 94% 3 mhos 390 - None None - -
Date/Time
(MST)
Sf
Temp Chem Water Layer Surface Precipitation
Sfc Pvt Sub Frz Factor Pct Dpth DpthThk IcePct Cond Salin FI Type Intens Accum Rate
01/21/2017 19:45 Ice Warning 25.7F - 26F 32F 95 1% - - 94% 3 mhos 390 - None None - -
01/21/2017 19:35 Ice Warning 25.7F - 26F 32F 95 2% - - 94% 3 mhos 393 - None None - -
01/21/2017 19:31 Ice Warning 25.7F - 26F 32F 95 2% - - 94% 3 mhos 394 - None None - -
01/21/2017 19:25 Ice Warning 25.7F - 26F 32F 95 2% - - 94% 3 mhos 396 - None None - -
01/21/2017 19:16 Ice Warning 25.7F - 26F 32F 95 2% - - 94% 3 mhos 398 - None None - -
01/21/2017 19:15 Ice Warning 25.7F - 26F 32F 95 2% - - 94% 3 mhos 398 - None None - -
01/21/2017 19:05 Ice Warning 25.5F - 26F 32F 95 2% - - 94% 3 mhos 402 - None None - -
01/21/2017 19:01 Ice Warning 25.2F - 26F 32F 95 2% - - 94% 3 mhos 405 - None None - -
01/21/2017 18:55 Ice Warning 24.8F - 26F 32F 95 2% - - 94% 3 mhos 409 - None None - -
01/21/2017 18:46 Ice Warning 24.6F - 26F 32F 95 2% - - 95% 3 mhos 411 - None None - -
01/21/2017 18:45 Ice Warning 24.6F - 26F 32F 95 2% - - 95% 3 mhos 411 - None None - -
01/21/2017 18:35 Ice Warning 25.0F - 26F 32F 95 2% - - 94% 3 mhos 413 - None None - -
01/21/2017 18:31 Ice Warning 25.5F - 26F 32F 95 2% - - 94% 4 mhos 413 - None None - -
01/21/2017 18:25 Ice Warning 25.9F - 26F 32F 95 2% - - 93% 4 mhos 415 - None None - -
01/21/2017 18:16 Ice Warning 26.4F - 26F 32F 95 2% - - 93% 4 mhos 416 - None None - -
Date/Time
(MST)
Sf
Temp Chem Water Layer Surface Precipitation
Sfc Pvt Sub Frz Factor Pct Dpth DpthThk IcePct Cond Salin FI Type Intens Accum Rate
01/21/2017 18:15 Ice Warning 26.4F - 26F 32F 95 2% - - 93% 4 mhos 415 - None None - -
01/21/2017 18:05 Ice Warning 26.6F - 26F 32F 95 2% - - 92% 4 mhos 420 - None None - -
01/21/2017 18:01 Ice Warning 26.6F - 26F 31F 95 2% - - 92% 4 mhos 422 - None None - -
01/21/2017 17:55 Ice Warning 27.0F - 26F 31F 95 2% - - 92% 4 mhos 424 - None None - -
01/21/2017 17:46 Ice Warning 27.1F - 26F 31F 95 2% - - 91% 4 mhos 431 - None None - -
01/21/2017 17:45 Ice Warning 27.1F - 26F 31F 95 2% - - 91% 4 mhos 430 - None None - -
01/21/2017 17:35 Ice Warning 27.5F - 26F 31F 95 2% - - 90% 4 mhos 435 - None None - -
01/21/2017 17:31 Ice Warning 27.7F - 26F 31F 95 2% - - 90% 4 mhos 437 - None None - -
01/21/2017 17:24 Ice Warning 27.7F - 26F 31F 95 2% - - 90% 4 mhos 441 - None None - -
01/21/2017 17:16 Ice Warning 27.1F - 26F 31F 95 2% - - 91% 4 mhos 448 - None None - -
01/21/2017 17:14 Ice Warning 27.1F - 26F 31F 95 2% - - 91% 4 mhos 448 - None None - -
01/21/2017 17:04 Ice Warning 28.0F - 26F 31F 95 2% - - 89% 4 mhos 453 - None None - -
01/21/2017 17:01 Ice Warning 28.4F - 26F 31F 95 2% - - 87% 4 mhos 456 - None None - -
01/21/2017 16:54 Chemically Wet 29.7F - 26F 31F 95 2% - - 80% 4 mhos 460 - None None - -
01/21/2017 16:46 Chemically Wet 30.6F - 26F 31F 95 2% - - 65% 4 mhos 470 - None None - -
Date/Time
(MST)
Sf
Temp Chem Water Layer Surface Precipitation
Sfc Pvt Sub Frz Factor Pct Dpth DpthThk IcePct Cond Salin FI Type Intens Accum Rate
01/21/2017 16:44 Chemically Wet 30.7F - 26F 31F 95 2% - - 61% 4 mhos 472 - None None - -
01/21/2017 16:34 Chemically Wet 31.5F - 26F 31F 95 2% - - 19% 4 mhos 479 - None None - -
01/21/2017 16:31 Chemically Wet 31.6F - 26F 31F 95 2% 0.00 in - 0% 4 mhos 482 - None None - -
01/21/2017 16:24 Chemically Wet 31.8F - 25F 31F 95 2% 0.00 in - 0% 5 mhos 484 - Yes - - -
01/21/2017 16:16 Wet 32.5F - 25F 31F 95 2% 0.00 in - 0% 5 mhos 496 - Yes - - -
01/21/2017 16:14 Wet 32.5F - 25F 31F 95 2% 0.00 in - 0% 5 mhos 495 - Yes - - -
01/21/2017 16:04 Wet 32.2F - 25F 31F 95 2% 0.00 in - 0% 5 mhos 507 - Yes - - -
01/21/2017 16:01 Chemically Wet 31.5F - 25F 31F 95 2% 0.00 in - 0% 5 mhos 512 - Yes - - -
01/21/2017 15:54 Chemically Wet 31.5F - 25F 31F 95 2% 0.00 in - 0% 5 mhos 510 - Yes - - -
01/21/2017 15:46 Chemically Wet 31.5F - 25F 31F 95 2% - - 15% 5 mhos 504 - Yes - - -
01/21/2017 15:44 Chemically Wet 31.5F - 25F 31F 95 2% - - 15% 5 mhos 504 - Yes - - -
01/21/2017 15:34 Chemically Wet 31.5F - 25F 31F 95 2% 0.00 in - 0% 4 mhos 484 - Yes - - -
01/21/2017 15:31 Chemically Wet 31.5F - 25F 31F 95 2% 0.00 in - 0% 4 mhos 476 - Yes - - -
01/21/2017 15:24 Chemically Wet 31.8F - 25F 31F 95 2% 0.00 in - 0% 4 mhos 458 - Yes - - -
01/21/2017 15:16 Chemically Wet 32.0F - 25F 31F 95 2% 0.00 in - 0% 4 mhos 426 - Yes - - -
Date/Time
(MST)
Sf
Temp Chem Water Layer Surface Precipitation
Sfc Pvt Sub Frz Factor Pct Dpth DpthThk IcePct Cond Salin FI Type Intens Accum Rate
01/21/2017 15:14 Chemically Wet 32.0F - 25F 32F 95 2% 0.00 in - 0% 4 mhos 407 - Yes - - -
01/21/2017 15:04 Chemically Wet 31.8F - 25F 32F 95 1% 0.00 in - 0% 3 mhos 363 - Yes - - -
01/21/2017 15:01 Chemically Wet 31.6F - 25F 32F 95 1% 0.00 in - 0% 3 mhos 355 - Yes - - -
01/21/2017 14:54 Wet 32.2F - 25F 32F 95 1% 0.00 in - 0% 3 mhos 326 - Yes - - -
01/21/2017 14:46 Wet 32.5F - 25F 32F 95 1% 0.00 in - 0% 2 mhos 179 - Yes - - -
01/21/2017 14:44 Wet 32.9F - 25F 32F 95 1% 0.00 in - 0% 2 mhos 178 - Yes - - -
01/21/2017 14:34 Wet 34.2F - 25F 32F 40 1% 0.00 in - 0% 2 mhos 171 - Yes - - -
01/21/2017 14:31 Wet 34.5F - 25F 32F 35 1% 0.00 in - 0% 2 mhos 169 - Yes - - -
01/21/2017 14:24 Wet 35.2F - 25F 32F 40 1% 0.00 in - 0% 2 mhos 171 - Yes - - -
01/21/2017 14:16 Wet 35.2F - 25F 32F 30 1% 0.00 in - 0% 2 mhos 170 - Yes - - -
01/21/2017 14:14 Wet 35.8F - 25F 32F 30 1% 0.00 in - 0% 2 mhos 170 - Yes - - -
01/21/2017 14:03 Wet 36.0F - 25F 32F 30 1% 0.00 in - 0% 2 mhos 164 - Yes - - -
01/21/2017 14:01 Wet 36.0F - 25F 32F 25 1% 0.00 in - 0% 2 mhos 163 - Yes - - -
01/21/2017 13:53 Wet 37.4F - 25F 32F 15 1% 0.00 in - 0% 2 mhos 160 - Yes - - -
01/21/2017 13:46 Wet 37.4F - 25F 32F 25 1% 0.00 in - 0% 2 mhos 163 - Yes - - -
Date/Time
(MST)
Sf
Temp Chem Water Layer Surface Precipitation
Sfc Pvt Sub Frz Factor Pct Dpth DpthThk IcePct Cond Salin FI Type Intens Accum Rate
01/21/2017 13:43 Wet 36.3F - 25F 32F 25 1% 0.00 in - 0% 2 mhos 162 - Yes - - -
01/21/2017 13:33 Wet 36.0F - 25F 32F 30 1% 0.00 in - 0% 2 mhos 152 - Yes - - -
01/21/2017 13:31 Wet 36.1F - 25F 32F 35 1% 0.00 in - 0% 1 mhos 150 - Yes - - -
01/21/2017 13:23 Wet 35.4F - 25F 32F 25 1% 0.00 in - 0% 1 mhos 138 - Yes - - -
01/21/2017 13:16 Wet 34.7F - 25F 32F 5 0% 0.00 in - 0% 1 mhos 128 - Yes - - -
01/21/2017 13:13 Wet 34.7F - 25F 32F 5 0% 0.00 in - 0% 1 mhos 126 - Yes - - -
01/21/2017 13:03 Wet 34.7F - 25F 32F 5 0% 0.00 in - 0% 1 mhos 124 - Yes - - -
01/21/2017 13:01 Wet 34.7F - 25F 32F 5 0% 0.00 in - 0% 1 mhos 124 - Yes - - -
01/21/2017 12:53 Wet 34.2F - 25F 32F 5 0% 0.00 in - 0% 1 mhos 126 - None None - -
01/21/2017 12:46 Wet 33.8F - 25F 32F 5 0% 0.00 in - 0% 1 mhos 128 - None None - -
01/21/2017 12:43 Wet 33.8F - 25F 32F 5 0% 0.00 in - 0% 1 mhos 129 - Yes - - -
01/21/2017 12:33 Wet 33.1F - 25F 32F 5 1% 0.00 in - 0% 1 mhos 133 - None None - -
01/21/2017 12:31 Wet 32.7F - 25F 32F 5 1% 0.00 in - 0% 1 mhos 134 - None None - -
01/21/2017 12:23 Wet 32.9F - 25F 32F 5 1% 0.00 in - 0% 1 mhos 137 - None None - -
01/21/2017 12:16 Wet 32.9F - 25F 32F 5 1% 0.00 in - 0% 1 mhos 138 - None None - -
Date/Time
(MST)
Sf
Temp Chem Water Layer Surface Precipitation
Sfc Pvt Sub Frz Factor Pct Dpth DpthThk IcePct Cond Salin FI Type Intens Accum Rate
01/21/2017 12:13 Wet 33.1F - 25F 32F 5 1% 0.00 in - 0% 1 mhos 139 - None None - -
01/21/2017 12:03 Wet 32.7F - 25F 32F 5 1% 0.00 in - 0% 1 mhos 143 - None None - -
01/21/2017 12:01 Wet 32.7F - 25F 32F 5 1% 0.00 in - 0% 1 mhos 144 - None None - -
01/21/2017 11:53 Wet 32.4F - 25F 32F 5 1% 0.00 in - 0% 1 mhos 147 - None None - -
01/21/2017 11:46 Wet 32.2F - 25F 32F 5 1% 0.00 in - 0% 1 mhos 149 - None None - -
01/21/2017 11:43 Chemically Wet 31.8F - 25F 32F 5 1% 0.00 in - 0% 1 mhos 150 - None None - -
01/21/2017 11:33 Chemically Wet 32.0F - 25F 32F 5 1% 0.00 in - 0% 1 mhos 157 - None None - -
01/21/2017 11:31 Wet 32.4F - 25F 32F 5 1% 0.00 in - 0% 1 mhos 157 - None None - -
01/21/2017 11:23 Wet 32.5F - 25F 32F 5 1% 0.00 in - 0% 2 mhos 162 - None None - -
01/21/2017 11:16 Chemically Wet 31.6F - 25F 32F 5 1% - - 43% 2 mhos 165 - None None - -
01/21/2017 11:13 Chemically Wet 31.5F - 25F 32F 5 1% - - 72% 2 mhos 167 - None None - -
01/21/2017 11:03 Ice Warning 29.1F - 25F 32F 5 1% - - 94% 2 mhos 170 - None None - -
01/21/2017 11:01 Ice Warning 28.8F - 25F 32F 5 1% - - 95% 2 mhos 171 - None None - -
01/21/2017 10:53 Ice Warning 26.4F - 25F 32F 15 1% - - 97% 2 mhos 174 - None None - -
01/21/2017 10:46 Ice Warning 25.2F - 25F 32F 15 1% - - 97% 1 mhos 176 - None None - -
Date/Time
(MST)
Sf
Temp Chem Water Layer Surface Precipitation
Sfc Pvt Sub Frz Factor Pct Dpth DpthThk IcePct Cond Salin FI Type Intens Accum Rate
01/21/2017 10:42 Ice Warning 25.0F - 25F 32F 15 1% - - 98% 1 mhos 175 - None None - -
01/21/2017 10:32 Ice Warning 23.7F - 25F 32F 20 1% - - 98% 1 mhos 175 - None None - -
01/21/2017 10:31 Ice Warning 23.5F - 25F 32F 20 1% - - 98% 1 mhos 174 - None None - -
01/21/2017 10:22 Ice Warning 22.8F - 25F 32F 20 1% - - 98% 1 mhos 177 - None None - -
01/21/2017 10:16 Ice Warning 22.3F - 25F 32F 20 1% - - 98% 1 mhos 175 - None None - -
01/21/2017 10:12 Ice Warning 22.1F - 25F 32F 25 1% - - 98% 1 mhos 177 - None None - -
01/21/2017 10:02 Ice Warning 21.6F - 25F 32F 20 1% - - 98% 1 mhos 177 - None None - -
01/21/2017 10:01 Ice Warning 21.6F - 25F 32F 20 1% - - 98% 1 mhos 177 - None None - -
01/21/2017 09:52 Ice Warning 21.7F - 25F 32F 15 1% - - 98% 1 mhos 177 - None None - -
01/21/2017 09:46 Ice Warning 21.6F - 25F 32F 15 1% - - 98% 1 mhos 175 - None None - -
01/21/2017 09:42 Ice Warning 21.4F - 25F 32F 20 1% - - 98% 1 mhos 175 - None None - -
01/21/2017 09:32 Ice Warning 20.7F - 25F 32F 20 1% - - 98% 1 mhos 176 - None None - -
01/21/2017 09:31 Ice Warning 20.3F - 25F 32F 20 1% - - 99% 1 mhos 177 - None None - -
01/21/2017 09:22 Ice Warning 19.8F - 26F 32F 15 1% - - 99% 1 mhos 176 - None None - -
01/21/2017 09:16 Ice Warning 19.2F - 26F 32F 20 1% - - 99% 1 mhos 176 - None None - -
Date/Time
(MST)
Sf
Temp Chem Water Layer Surface Precipitation
Sfc Pvt Sub Frz Factor Pct Dpth DpthThk IcePct Cond Salin FI Type Intens Accum Rate
01/21/2017 09:12 Ice Warning 18.9F - 26F 32F 20 1% - - 99% 1 mhos 177 - None None - -
01/21/2017 09:02 Ice Warning 18.1F - 26F 32F 15 1% - - 99% 1 mhos 175 - None None - -
01/21/2017 09:01 Ice Warning 18.0F - 26F 32F 15 1% - - 99% 1 mhos 176 - None None - -
01/21/2017 08:52 Ice Warning 17.8F - 26F 32F 15 1% - - 99% 1 mhos 177 - None None - -
01/21/2017 08:46 Ice Warning 17.6F - 26F 32F 15 1% - - 99% 1 mhos 175 - None None - -
01/21/2017 08:42 Ice Warning 17.4F - 26F 32F 15 1% - - 99% 1 mhos 176 - None None - -
01/21/2017 08:32 Ice Warning 17.2F - 26F 32F 15 1% - - 99% 1 mhos 176 - None None - -
01/21/2017 08:31 Ice Warning 17.1F - 26F 32F 15 1% - - 99% 1 mhos 177 - None None - -
01/21/2017 08:22 Ice Warning 16.7F - 26F 32F 15 1% - - 99% 1 mhos 175 - None None - -
01/21/2017 08:16 Ice Warning 16.5F - 26F 32F 10 1% - - 99% 1 mhos 177 - None None - -
01/21/2017 08:12 Ice Warning 16.5F - 26F 32F 10 1% - - 99% 1 mhos 176 - None None - -
01/21/2017 08:02 Ice Warning 16.2F - 26F 32F 10 1% - - 99% 1 mhos 179 - None None - -
01/21/2017 08:01 Ice Warning 16.3F - 26F 32F 10 1% - - 99% 1 mhos 178 - None None - -
01/21/2017 07:52 Ice Warning 16.2F - 26F 32F 10 1% - - 99% 1 mhos 178 - None None - -
01/21/2017 07:46 Ice Warning 16.2F - 26F 32F 10 1% - - 99% 1 mhos 178 - None None - -
Date/Time
(MST)
Sf
Temp Chem Water Layer Surface Precipitation
Sfc Pvt Sub Frz Factor Pct Dpth DpthThk IcePct Cond Salin FI Type Intens Accum Rate
01/21/2017 07:42 Ice Warning 16.0F - 26F 32F 10 1% - - 99% 1 mhos 178 - None None - -
01/21/2017 07:32 Ice Warning 16.2F - 26F 32F 10 1% - - 99% 1 mhos 178 - None None - -
01/21/2017 07:31 Ice Warning 16.2F - 26F 32F 5 1% - - 99% 1 mhos 178 - None None - -
01/21/2017 07:22 Ice Warning 16.0F - 26F 32F 5 1% - - 99% 1 mhos 179 - None None - -
01/21/2017 07:16 Ice Warning 16.0F - 26F 32F 5 1% - - 99% 1 mhos 181 - None None - -
01/21/2017 07:11 Ice Warning 15.8F - 26F 32F 5 1% - - 99% 1 mhos 181 - None None - -
01/21/2017 07:01 Ice Warning 15.4F - 26F 32F 5 1% - - 99% 1 mhos 182 - None None - -
01/21/2017 07:01 Ice Warning 15.4F - 26F 32F 5 1% - - 99% 1 mhos 182 - None None - -
01/21/2017 06:51 Ice Warning 15.1F - 26F 32F 5 1% - - 99% 1 mhos 184 - None None - -
01/21/2017 06:46 Ice Warning 14.7F - 26F 32F 5 1% - - 99% 1 mhos 183 - None None - -
01/21/2017 06:41 Ice Warning 14.5F - 26F 32F 5 1% - - 99% 1 mhos 184 - None None - -
01/21/2017 06:31 Ice Warning 14.4F - 26F 32F 5 1% - - 99% 1 mhos 187 - None None - -
01/21/2017 06:31 Ice Warning 14.4F - 26F 32F 5 1% - - 99% 1 mhos 187 - None None - -
01/21/2017 06:21 Ice Warning 14.4F - 26F 32F 5 1% - - 99% 1 mhos 186 - None None - -
01/21/2017 06:16 Ice Warning 14.4F - 26F 32F 5 1% - - 99% 1 mhos 186 - None None - -
Date/Time
(MST)
Sf
Temp Chem Water Layer Surface Precipitation
Sfc Pvt Sub Frz Factor Pct Dpth DpthThk IcePct Cond Salin FI Type Intens Accum Rate
01/21/2017 06:11 Ice Warning 14.4F - 26F 32F 5 1% - - 99% 1 mhos 188 - None None - -
01/21/2017 06:01 Ice Warning 14.4F - 26F 32F 10 1% - - 99% 1 mhos 189 - None None - -
01/21/2017 06:01 Ice Warning 14.4F - 26F 32F 10 1% - - 99% 1 mhos 189 - None None - -
01/21/2017 05:51 Ice Warning 14.4F - 26F 32F 10 1% - - 99% 1 mhos 189 - None None - -
01/21/2017 05:46 Ice Warning 14.4F - 26F 32F 10 1% - - 99% 1 mhos 189 - None None - -
01/21/2017 05:41 Ice Warning 14.5F - 26F 32F 10 1% - - 99% 1 mhos 189 - None None - -
01/21/2017 05:31 Ice Warning 14.5F - 26F 32F 10 1% - - 99% 1 mhos 190 - None None - -
01/21/2017 05:31 Ice Warning 14.5F - 26F 32F 10 1% - - 99% 1 mhos 190 - None None - -
01/21/2017 05:21 Ice Warning 14.7F - 27F 32F 10 1% - - 99% 1 mhos 191 - None None - -
01/21/2017 05:16 Ice Warning 14.7F - 27F 32F 10 1% - - 99% 1 mhos 192 - None None - -
01/21/2017 05:11 Ice Warning 14.9F - 27F 32F 10 1% - - 99% 1 mhos 192 - None None - -
01/21/2017 05:01 Ice Warning 15.1F - 27F 32F 15 1% - - 99% 1 mhos 194 - None None - -
01/21/2017 05:01 Ice Warning 15.1F - 27F 32F 15 1% - - 99% 1 mhos 194 - None None - -
01/21/2017 04:51 Ice Warning 15.3F - 27F 32F 10 1% - - 99% 1 mhos 193 - None None - -
01/21/2017 04:46 Ice Warning 15.4F - 27F 32F 10 1% - - 99% 1 mhos 194 - None None - -
Date/Time
(MST)
Sf
Temp Chem Water Layer Surface Precipitation
Sfc Pvt Sub Frz Factor Pct Dpth DpthThk IcePct Cond Salin FI Type Intens Accum Rate
01/21/2017 04:41 Ice Warning 15.4F - 27F 32F 10 1% - - 99% 1 mhos 194 - None None - -
01/21/2017 04:31 Ice Warning 15.6F - 27F 32F 10 1% - - 99% 1 mhos 195 - None None - -
01/21/2017 04:31 Ice Warning 15.6F - 27F 32F 10 1% - - 99% 1 mhos 195 - None None - -
01/21/2017 04:21 Ice Warning 15.8F - 27F 32F 10 1% - - 99% 1 mhos 196 - None None - -
01/21/2017 04:16 Ice Warning 15.8F - 27F 32F 10 1% - - 99% 1 mhos 196 - None None - -
01/21/2017 04:11 Ice Warning 15.8F - 27F 32F 10 1% - - 99% 1 mhos 197 - None None - -
01/21/2017 04:01 Ice Warning 15.8F - 27F 32F 15 1% - - 99% 1 mhos 197 - None None - -
01/21/2017 04:01 Ice Warning 15.8F - 27F 32F 15 1% - - 99% 1 mhos 197 - None None - -
01/21/2017 03:50 Ice Warning 15.6F - 27F 32F 15 1% - - 99% 1 mhos 200 - None None - -
01/21/2017 03:46 Ice Warning 15.8F - 27F 32F 15 1% - - 99% 1 mhos 200 - None None - -
01/21/2017 03:40 Ice Warning 15.8F - 27F 32F 15 1% - - 99% 1 mhos 200 - None None - -
01/21/2017 03:31 Ice Warning 15.8F - 27F 32F 15 1% - - 99% 1 mhos 200 - None None - -
01/21/2017 03:30 Ice Warning 15.8F - 27F 32F 15 1% - - 99% 1 mhos 200 - None None - -
01/21/2017 03:20 Ice Warning 16.0F - 27F 32F 15 1% - - 99% 1 mhos 201 - None None - -
01/21/2017 03:16 Ice Warning 16.0F - 27F 32F 20 1% - - 99% 2 mhos 203 - None None - -
Date/Time
(MST)
Sf
Temp Chem Water Layer Surface Precipitation
Sfc Pvt Sub Frz Factor Pct Dpth DpthThk IcePct Cond Salin FI Type Intens Accum Rate
01/21/2017 03:10 Ice Warning 16.2F - 27F 32F 20 1% - - 99% 2 mhos 203 - None None - -
01/21/2017 03:01 Ice Warning 16.2F - 27F 32F 20 1% - - 99% 2 mhos 205 - None None - -
01/21/2017 03:00 Ice Warning 16.2F - 27F 32F 20 1% - - 99% 2 mhos 205 - None None - -
01/21/2017 02:50 Ice Warning 16.2F - 27F 32F 20 1% - - 99% 2 mhos 205 - None None - -
01/21/2017 02:46 Ice Warning 16.5F - 27F 32F 25 1% - - 99% 2 mhos 204 - None None - -
01/21/2017 02:40 Ice Warning 16.5F - 27F 32F 20 1% - - 99% 2 mhos 206 - None None - -
01/21/2017 02:31 Ice Warning 16.7F - 27F 32F 25 1% - - 99% 2 mhos 207 - None None - -
01/21/2017 02:30 Ice Warning 16.7F - 27F 32F 25 1% - - 99% 2 mhos 207 - None None - -
01/21/2017 02:20 Ice Warning 16.9F - 27F 32F 25 1% - - 99% 2 mhos 208 - None None - -
01/21/2017 02:16 Ice Warning 17.1F - 27F 32F 25 1% - - 99% 2 mhos 207 - None None - -
01/21/2017 02:10 Ice Warning 17.1F - 27F 32F 25 1% - - 99% 2 mhos 207 - None None - -
01/21/2017 02:01 Ice Warning 17.2F - 27F 32F 25 1% - - 99% 2 mhos 208 - None None - -
01/21/2017 02:00 Ice Warning 17.2F - 27F 32F 25 1% - - 99% 2 mhos 208 - None None - -
01/21/2017 01:50 Ice Warning 17.4F - 27F 32F 25 1% - - 99% 2 mhos 209 - None None - -
01/21/2017 01:46 Ice Warning 17.4F - 27F 32F 25 1% - - 99% 2 mhos 207 - None None - -
Date/Time
(MST)
Sf
Temp Chem Water Layer Surface Precipitation
Sfc Pvt Sub Frz Factor Pct Dpth DpthThk IcePct Cond Salin FI Type Intens Accum Rate
01/21/2017 01:40 Ice Warning 17.6F - 27F 32F 25 1% - - 99% 2 mhos 210 - None None - -
01/21/2017 01:31 Ice Warning 17.6F - 27F 32F 25 1% - - 99% 2 mhos 210 - None None - -
01/21/2017 01:30 Ice Warning 17.6F - 27F 32F 25 1% - - 99% 2 mhos 210 - None None - -
01/21/2017 01:20 Ice Warning 18.0F - 27F 32F 25 1% - - 99% 2 mhos 211 - None None - -
01/21/2017 01:16 Ice Warning 18.0F - 27F 32F 30 1% - - 99% 2 mhos 209 - None None - -
01/21/2017 01:10 Ice Warning 18.0F - 27F 32F 30 1% - - 99% 2 mhos 212 - None None - -
01/21/2017 01:01 Ice Warning 18.1F - 27F 32F 25 1% - - 99% 2 mhos 212 - None None - -
01/21/2017 01:00 Ice Warning 18.3F - 27F 32F 25 1% - - 99% 2 mhos 213 - None None - -
01/21/2017 00:50 Ice Warning 18.3F - 27F 32F 30 1% - - 98% 2 mhos 212 - None None - -
01/21/2017 00:46 Ice Warning 18.3F - 27F 32F 30 1% - - 98% 2 mhos 212 - None None - -
01/21/2017 00:40 Ice Warning 18.5F - 27F 32F 30 1% - - 98% 2 mhos 214 - None None - -
01/21/2017 00:31 Ice Warning 18.7F - 27F 32F 30 1% - - 98% 2 mhos 213 - None None - -
01/21/2017 00:29 Ice Warning 18.7F - 27F 32F 30 1% - - 98% 2 mhos 213 - None None - -
01/21/2017 00:19 Ice Warning 19.0F - 27F 32F 35 1% - - 98% 2 mhos 212 - None None - -
01/21/2017 00:16 Ice Warning 19.0F - 27F 32F 35 1% - - 98% 2 mhos 212 - None None - -
Date/Time
(MST)
Sf
Temp Chem Water Layer Surface Precipitation
Sfc Pvt Sub Frz Factor Pct Dpth DpthThk IcePct Cond Salin FI Type Intens Accum Rate
01/21/2017 00:09 Ice Warning 19.2F - 27F 32F 40 1% - - 98% 2 mhos 213 - None None - -
01/21/2017 00:01 Ice Warning 19.4F - 27F 32F 40 1% - - 98% 2 mhos 214 - None None - -
01/20/2017 23:59 Ice Warning 19.4F - 27F 32F 45 1% - - 98% 2 mhos 214 - None None - -
01/20/2017 23:49 Ice Warning 19.8F - 27F 32F 50 1% - - 98% 2 mhos 213 - None None - -
01/20/2017 23:46 Ice Warning 19.8F - 27F 32F 50 1% - - 98% 2 mhos 214 - None None - -
01/20/2017 23:39 Ice Warning 19.9F - 27F 32F 50 1% - - 98% 2 mhos 212 - None None - -
01/20/2017 23:31 Ice Warning 20.1F - 27F 32F 50 1% - - 98% 2 mhos 215 - None None - -
01/20/2017 23:29 Ice Warning 20.3F - 27F 32F 50 1% - - 98% 2 mhos 213 - None None - -
01/20/2017 23:19 Ice Warning 20.3F - 27F 32F 55 1% - - 98% 2 mhos 214 - None None - -
01/20/2017 23:16 Ice Warning 20.3F - 27F 32F 55 1% - - 98% 2 mhos 214 - None None - -
01/20/2017 23:09 Ice Warning 20.3F - 27F 32F 60 1% - - 98% 2 mhos 216 - None None - -
01/20/2017 23:01 Ice Warning 20.5F - 27F 32F 60 1% - - 98% 2 mhos 214 - None None - -
01/20/2017 22:59 Ice Warning 20.5F - 27F 32F 60 1% - - 98% 2 mhos 215 - None None - -
Change End Date:

Copyright © 1998-2015 Vaisala, Inc.
All Rights Reserved
Send comments about the data to:
SCAN Web ® is a registered trademark of Vaisala, Inc.
SCAN Web Version 6.0